Location: Pettit
(39.0209°N, 79.7181°W)
Time: 05:24:01
(UTC+00:00)

ISS - Pass Details

Date: 22 April 2026
Orbit: 414 x 424 km, 51.6° (Epoch: 15 May)

Event Time Altitude Azimuth Distance (km) Brightness Sun altitude
Exits shadow 09:41:46 - 284° (WNW) 1,550 -1.3 -10.0°
Reaches altitude 10° 09:41:57 10° 286° (WNW) 1,496 -1.4 -10.0°
Maximum altitude 09:44:31 20° 336° (NNW) 1,032 -1.8 -9.5°
Drops below altitude 10° 09:47:07 10° 26° (NNE) 1,505 -0.1 -9.1°
Sets 09:49:37 0° 44° (NE) 2,374 1.5 -8.6°
